| time (UTC) | temp C | wind direction | speed KPH | gust KPH | rain 1hr cm | rain 24hr cm | rain mn cm | humidity % | barometer mb |
| 20260903224005 | 18 | 212 | 6.4 | 25.7 | 0.00 | 0.03 | 0.03 | 95 | 1017.0 |
| 20260903221005 | 18 | 306 | 3.2 | 14.5 | 0.00 | 0.03 | 0.03 | 95 | 1017.2 |
| 20260903220005 | 18 | 263 | 6.4 | 19.3 | 0.00 | 0.03 | 0.03 | 95 | 1017.5 |
| 20260903214005 | 18 | 275 | 4.8 | 19.3 | 0.00 | 0.03 | 0.03 | 95 | 1018.0 |
| 20260903212005 | 18 | 307 | 3.2 | 16.1 | 0.00 | 0.03 | 0.03 | 95 | 1018.2 |
| 20260903211005 | 18 | 343 | 4.8 | 24.1 | 0.00 | 0.03 | 0.03 | 95 | 1018.4 |
| 20260903205005 | 18 | 272 | 9.7 | 29.0 | 0.00 | 0.03 | 0.03 | 95 | 1018.3 |
| 20260903204005 | 18 | 267 | 8.0 | 22.5 | 0.00 | 0.03 | 0.03 | 95 | 1018.1 |
| 20260903203005 | 18 | 308 | 4.8 | 19.3 | 0.00 | 0.03 | 0.03 | 95 | 1018.1 |
| 20260903202005 | 18 | 302 | 4.8 | 16.1 | 0.00 | 0.03 | 0.03 | 95 | 1018.1 |
| 20260903201005 | 18 | 279 | 8.0 | 19.3 | 0.00 | 0.03 | 0.03 | 95 | 1018.3 |
| 20260903200005 | 18 | 292 | 3.2 | 19.3 | 0.00 | 0.03 | 0.03 | 95 | 1018.4 |
| 20260903194006 | 18 | 253 | 3.2 | 19.3 | 0.00 | 0.03 | 0.03 | 95 | 1018.4 |
| 20260903193005 | 18 | 277 | 4.8 | 19.3 | 0.00 | 0.03 | 0.03 | 95 | 1018.5 |
| 20260903191005 | 18 | 293 | 6.4 | 22.5 | 0.00 | 0.03 | 0.03 | 95 | 1018.5 |
| 20260903190005 | 19 | 275 | 6.4 | 19.3 | 0.00 | 0.03 | 0.03 | 95 | 1018.5 |
| 20260903185005 | 19 | 271 | 4.8 | 24.1 | 0.00 | 0.05 | 0.03 | 95 | 1018.5 |
| 20260903184005 | 19 | 296 | 4.8 | 19.3 | 0.00 | 0.05 | 0.03 | 94 | 1018.5 |
| 20260903183005 | 19 | 253 | 4.8 | 19.3 | 0.00 | 0.05 | 0.03 | 94 | 1018.4 |
| 20260903182005 | 19 | 223 | 8.0 | 19.3 | 0.00 | 0.05 | 0.03 | 94 | 1018.5 |
| 20260903180005 | 19 | 265 | 4.8 | 27.4 | 0.00 | 0.05 | 0.03 | 94 | 1018.5 |
| 20260903175005 | 19 | 268 | 9.7 | 27.4 | 0.00 | 0.05 | 0.03 | 93 | 1018.4 |
| 20260903174005 | 19 | 206 | 8.0 | 19.3 | 0.00 | 0.05 | 0.03 | 93 | 1018.5 |
| 20260903173006 | 20 | 281 | 4.8 | 19.3 | 0.00 | 0.05 | 0.03 | 93 | 1018.5 |
| 20260903172005 | 20 | 277 | 4.8 | 19.3 | 0.00 | 0.05 | 0.03 | 93 | 1018.6 |
| 20260903171005 | 20 | 184 | 4.8 | 19.3 | 0.00 | 0.08 | 0.03 | 93 | 1018.7 |
| 20260903170005 | 20 | 261 | 8.0 | 24.1 | 0.00 | 0.08 | 0.03 | 93 | 1018.6 |
| 20260903164004 | 20 | 262 | 8.0 | 14.5 | 0.00 | 0.08 | 0.03 | 92 | 1018.7 |
| 20260903163005 | 20 | 272 | 4.8 | 22.5 | 0.00 | 0.10 | 0.03 | 92 | 1018.7 |
| 20260903162004 | 20 | 263 | 8.0 | 27.4 | 0.00 | 0.10 | 0.03 | 92 | 1018.7 |
| 20260903161004 | 20 | 248 | 6.4 | 24.1 | 0.00 | 0.10 | 0.03 | 92 | 1018.8 |
| 20260903160005 | 20 | 284 | 6.4 | 24.1 | 0.00 | 0.10 | 0.03 | 92 | 1018.8 |
| 20260903155004 | 20 | 293 | 4.8 | 16.1 | 0.00 | 0.10 | 0.03 | 92 | 1018.9 |
| 20260903154005 | 20 | 205 | 4.8 | 19.3 | 0.00 | 0.10 | 0.03 | 92 | 1019.0 |
| 20260903153004 | 20 | 269 | 6.4 | 19.3 | 0.00 | 0.13 | 0.03 | 92 | 1019.0 |
| 20260903150005 | 20 | 214 | 8.0 | 22.5 | 0.00 | 0.13 | 0.03 | 92 | 1019.2 |
| 20260903145004 | 20 | 218 | 8.0 | 29.0 | 0.00 | 0.15 | 0.03 | 92 | 1019.1 |
| 20260903144006 | 20 | 299 | 8.0 | 22.5 | 0.00 | 0.15 | 0.03 | 92 | 1019.3 |
| 20260903142004 | 20 | 294 | 6.4 | 19.3 | 0.00 | 0.15 | 0.03 | 92 | 1019.4 |
| 20260903140004 | 20 | 268 | 8.0 | 19.3 | 0.00 | 0.15 | 0.03 | 93 | 1019.4 |
| 20260903135004 | 20 | 231 | 6.4 | 19.3 | 0.00 | 0.15 | 0.03 | 93 | 1019.5 |
| 20260903132005 | 20 | 198 | 4.8 | 19.3 | 0.00 | 0.15 | 0.03 | 93 | 1019.6 |
| 20260903131004 | 20 | 255 | 9.7 | 25.7 | 0.00 | 0.15 | 0.03 | 93 | 1019.7 |
| 20260903130004 | 20 | 263 | 4.8 | 22.5 | 0.00 | 0.15 | 0.03 | 93 | 1019.7 |
| 20260903125004 | 20 | 202 | 9.7 | 22.5 | 0.00 | 0.15 | 0.03 | 94 | 1019.6 |
| 20260903124004 | 20 | 255 | 3.2 | 19.3 | 0.00 | 0.15 | 0.03 | 93 | 1019.8 |
| 20260903122004 | 20 | 257 | 3.2 | 24.1 | 0.00 | 0.15 | 0.03 | 93 | 1019.7 |
| 20260903121004 | 20 | 253 | 6.4 | 24.1 | 0.00 | 0.15 | 0.03 | 92 | 1019.7 |
| 20260903120004 | 20 | 262 | 3.2 | 19.3 | 0.00 | 0.15 | 0.03 | 93 | 1019.6 |
| 20260903114004 | 20 | 238 | 4.8 | 22.5 | 0.00 | 0.15 | 0.03 | 93 | 1019.6 |
| 20260903113004 | 20 | 184 | 4.8 | 19.3 | 0.00 | 0.15 | 0.03 | 93 | 1019.7 |
| 20260903112004 | 20 | 280 | 6.4 | 19.3 | 0.00 | 0.15 | 0.03 | 93 | 1019.8 |
| 20260903111004 | 20 | 217 | 4.8 | 19.3 | 0.00 | 0.15 | 0.03 | 93 | 1019.7 |
| 20260903110004 | 20 | 191 | 4.8 | 19.3 | 0.00 | 0.15 | 0.03 | 93 | 1019.8 |
| 20260903105004 | 20 | 295 | 6.4 | 19.3 | 0.00 | 0.15 | 0.03 | 93 | 1019.6 |
| 20260903104005 | 20 | 249 | 4.8 | 19.3 | 0.00 | 0.15 | 0.03 | 93 | 1019.6 |
| 20260903103004 | 20 | 313 | 6.4 | 19.3 | 0.00 | 0.15 | 0.03 | 92 | 1019.8 |
| 20260903102006 | 20 | 288 | 8.0 | 19.3 | 0.00 | 0.15 | 0.03 | 91 | 1019.7 |
| 20260903101004 | 20 | 254 | 4.8 | 19.3 | 0.00 | 0.15 | 0.03 | 91 | 1019.7 |
| 20260903100004 | 20 | 303 | 8.0 | 22.5 | 0.00 | 0.15 | 0.03 | 90 | 1019.8 |
| 20260903095004 | 20 | 305 | 9.7 | 19.3 | 0.00 | 0.15 | 0.03 | 89 | 1019.6 |
| 20260903094004 | 20 | 313 | 4.8 | 19.3 | 0.00 | 0.15 | 0.03 | 91 | 1019.6 |
| 20260903093004 | 20 | 302 | 9.7 | 24.1 | 0.00 | 0.15 | 0.03 | 92 | 1019.4 |
| 20260903091005 | 19 | 302 | 8.0 | 22.5 | 0.00 | 0.15 | 0.03 | 94 | 1019.4 |
| 20260903090006 | 19 | 293 | 8.0 | 24.1 | 0.00 | 0.15 | 0.03 | 95 | 1019.5 |
| 20260903085004 | 19 | 241 | 8.0 | 24.1 | 0.00 | 0.15 | 0.03 | 94 | 1019.2 |
| 20260903084006 | 19 | 283 | 8.0 | 24.1 | 0.00 | 0.15 | 0.03 | 94 | 1019.3 |
| 20260903082006 | 19 | 253 | 4.8 | 19.3 | 0.00 | 0.15 | 0.03 | 93 | 1019.1 |
| 20260903080006 | 19 | 308 | 6.4 | 22.5 | 0.00 | 0.15 | 0.03 | 95 | 1019.2 |
| 20260903075005 | 19 | 271 | 4.8 | 19.3 | 0.00 | 0.15 | 0.03 | 95 | 1019.0 |
| 20260903074006 | 18 | 264 | 4.8 | 19.3 | 0.00 | 0.15 | 0.03 | 95 | 1018.9 |
| 20260903073006 | 18 | 285 | 6.4 | 16.1 | 0.00 | 0.15 | 0.03 | 95 | 1018.9 |
| 20260903072006 | 18 | 249 | 4.8 | 19.3 | 0.00 | 0.15 | 0.03 | 95 | 1018.9 |
| 20260903071006 | 18 | 268 | 4.8 | 14.5 | 0.00 | 0.15 | 0.03 | 95 | 1019.0 |
| 20260903070007 | 18 | 294 | 8.0 | 19.3 | 0.00 | 0.15 | 0.03 | 95 | 1018.9 |
| 20260903065006 | 18 | 281 | 8.0 | 19.3 | 0.00 | 0.15 | 0.03 | 95 | 1019.0 |
| 20260903064006 | 18 | 296 | 8.0 | 19.3 | 0.00 | 0.15 | 0.03 | 95 | 1018.9 |
| 20260903063006 | 18 | 308 | 8.0 | 27.4 | 0.00 | 0.15 | 0.03 | 95 | 1018.9 |
| 20260903062006 | 18 | 298 | 9.7 | 19.3 | 0.00 | 0.15 | 0.03 | 95 | 1018.8 |
| 20260903061006 | 18 | 295 | 9.7 | 19.3 | 0.00 | 0.15 | 0.03 | 95 | 1018.8 |
| 20260903055006 | 18 | 295 | 8.0 | 19.3 | 0.00 | 0.15 | 0.03 | 95 | 1018.6 |
| 20260903054005 | 18 | 306 | 9.7 | 19.3 | 0.00 | 0.15 | 0.03 | 95 | 1018.5 |
| 20260903053006 | 18 | 304 | 9.7 | 19.3 | 0.00 | 0.15 | 0.03 | 95 | 1018.4 |
| 20260903052005 | 18 | 297 | 11.3 | 29.0 | 0.00 | 0.15 | 0.03 | 95 | 1018.3 |
| 20260903051006 | 18 | 293 | 9.7 | 24.1 | 0.00 | 0.15 | 0.03 | 95 | 1018.2 |
| 20260903050006 | 18 | 298 | 8.0 | 27.4 | 0.00 | 0.15 | 0.03 | 95 | 1018.0 |
| 20260903045007 | 18 | 298 | 11.3 | 27.4 | 0.00 | 0.15 | 0.03 | 95 | 1017.9 |
| 20260903044006 | 18 | 295 | 8.0 | 25.7 | 0.00 | 0.15 | 0.03 | 95 | 1017.7 |
| 20260903043006 | 18 | 293 | 8.0 | 22.5 | 0.00 | 0.15 | 0.03 | 95 | 1017.7 |
| 20260903042006 | 18 | 310 | 6.4 | 24.1 | 0.00 | 0.15 | 0.03 | 95 | 1017.7 |
| 20260903041006 | 18 | 274 | 8.0 | 19.3 | 0.00 | 0.15 | 0.03 | 95 | 1017.7 |
| 20260903040004 | 18 | 297 | 8.0 | 19.3 | 0.03 | 0.15 | 0.03 | 95 | 1018.0 |
| 20260903035006 | 18 | 293 | 8.0 | 19.3 | 0.03 | 0.15 | 0.03 | 95 | 1018.0 |
| 20260903034006 | 18 | 306 | 6.4 | 19.3 | 0.03 | 0.15 | 0.03 | 95 | 1018.1 |
| 20260903033004 | 18 | 284 | 6.4 | 19.3 | 0.03 | 0.15 | 0.03 | 95 | 1018.2 |
| 20260903032006 | 18 | 282 | 6.4 | 19.3 | 0.03 | 0.15 | 0.03 | 95 | 1018.0 |
| 20260903031006 | 18 | 297 | 8.0 | 25.7 | 0.03 | 0.15 | 0.03 | 95 | 1017.8 |
| 20260903030006 | 18 | 280 | 9.7 | 22.5 | 0.00 | 0.13 | 0.00 | 95 | 1018.2 |
| 20260903025005 | 18 | 248 | 4.8 | 19.3 | 0.00 | 0.13 | 0.00 | 95 | 1017.9 |
| 20260903024007 | 18 | 297 | 12.9 | 24.1 | 0.00 | 0.13 | 0.00 | 95 | 1018.1 |
| 20260903023006 | 18 | 289 | 6.4 | 24.1 | 0.00 | 0.13 | 0.00 | 95 | 1018.2 |
| 20260903022005 | 18 | 305 | 4.8 | 25.7 | 0.00 | 0.13 | 0.00 | 95 | 1017.9 |
| 20260903020005 | 18 | 285 | 9.7 | 22.5 | 0.00 | 0.13 | 0.00 | 95 | 1017.8 |
| 20260903015005 | 18 | 298 | 8.0 | 19.3 | 0.00 | 0.13 | 0.00 | 95 | 1017.7 |
| 20260903013005 | 18 | 280 | 8.0 | 25.7 | 0.00 | 0.13 | 0.00 | 95 | 1018.1 |
| 20260903012004 | 18 | 321 | 4.8 | 27.4 | 0.00 | 0.13 | 0.00 | 95 | 1018.2 |
| 20260903011005 | 18 | 273 | 6.4 | 19.3 | 0.00 | 0.13 | 0.00 | 95 | 1018.3 |
| 20260903010005 | 18 | 265 | 4.8 | 19.3 | 0.00 | 0.13 | 0.00 | 95 | 1018.4 |
| 20260903005005 | 17 | 236 | 4.8 | 19.3 | 0.00 | 0.13 | 0.00 | 94 | 1018.6 |
| 20260903004005 | 17 | 217 | 6.4 | 19.3 | 0.00 | 0.13 | 0.00 | 94 | 1018.8 |
| 20260903003007 | 17 | 296 | 6.4 | 19.3 | 0.00 | 0.13 | 0.00 | 94 | 1018.7 |
| 20260903002005 | 17 | 213 | 4.8 | 22.5 | 0.00 | 0.13 | 0.00 | 94 | 1018.5 |
| 20260903001005 | 17 | 254 | 4.8 | 19.3 | 0.00 | 0.13 | 0.00 | 94 | 1018.2 |
| 20260903000005 | 17 | 290 | 9.7 | 22.5 | 0.00 | 0.13 | 0.00 | 94 | 1018.3 |
| 20260902235006 | 17 | 297 | 8.0 | 22.5 | 0.00 | 0.13 | 0.00 | 94 | 1018.2 |
| 20260902233005 | 17 | 292 | 9.7 | 25.7 | 0.00 | 0.13 | 0.00 | 94 | 1018.7 |
| 20260902230005 | 18 | 305 | 8.0 | 19.3 | 0.00 | 0.13 | 0.00 | 94 | 1019.0 |
| 20260902225005 | 18 | 324 | 8.0 | 19.3 | 0.00 | 0.13 | 0.13 | 94 | 1019.1 |